Погода в Миловидах

Беларусь     52°53′46″N   25°50′58″E
темп.,
°C
ветер,
м/с
пор.,
м/с
влажн.,
%
обл.,
%
осадки,
мм/ч
давл.,
гПа
погр.,
м
15 апреля, чт
чт1500:00+7всв1499100 0.6 1014201
03:00+6юв1399100 0.9 1014175
06:00+5ююв1398100 0.5 1015178
09:00+5юз1196100 1.0 101683
12:00+10ссз218162 0.0 1016479
15:00+10с4482100 0.3 1015826
18:00+8с4686100 0.1 1015610
21:00+5с3895100 2.6 1015476
16 апреля, пт
пт1600:00+5с3896100 2.8 1013495
03:00+5ссв3997100 7.4 1013478
06:00+6св3998100 1.3 1012395
09:00+8св389589 1.3 1013425
12:00+11в5782100 1.1 10131155
15:00+13всв577599 2.9 10131143
18:00+12в477289 1.2 1014890
21:00+7всв289172 1.4 1016194
17 апреля, сб
сб1700:00+6всв279586 0.0 1017185
03:00+7св2693100 0.0 1017191
06:00+5всв24975 0.0 101885
09:00+8в248565 0.0 1019391
12:00+9вюв3683100 0.3 1020662
15:00+10вюв4671100 0.3 1021870
18:00+11вюв366385 0.0 10211178
21:00+9юв1280100 0.0 102261
18 апреля, вс
вс1800:00+7юз1183100 0.0 102316
03:00+7з1184100 0.0 102321
06:00+7с1287100 0.0 102367
09:00+8всв1493100 0.0 1023219
12:00+11в3586100 0.3 1023531
15:00+13вюв3673100 0.8 10231030
18:00+11вюв41081100 1.2 1022681
21:00+9в3993100 1.3 1023329
19 апреля, пн
пн1900:00+10вюв31291100 0.4 1023577
03:00+9в41189100 0.4 1023545
06:00+9в41186100 0.0 1023552
09:00+9в41281100 0.0 1023636
12:00+11вюв51172100 0.0 1023831
15:00+12вюв5964100 0.1 10231459
18:00+13вюв5963100 0.1 10221310
21:00+10в31077100 0.3 1022494